TimeMST,TemperatureF,Dew PointF,Humidity,Sea Level PressureIn,VisibilityMPH,Wind Direction,Wind SpeedMPH,Gust SpeedMPH,PrecipitationIn,Events,Conditions,WindDirDegrees,DateUTC
12:53 AM,37.9,23.0,55,30.03,-9999.0,WSW,4.6,-,N/A,,Clear,250,2012-11-19 07:53:00
1:53 AM,41.0,24.1,51,30.02,-9999.0,SW,16.1,-,N/A,,Clear,220,2012-11-19 08:53:00
2:53 AM,41.0,23.0,49,30.02,-9999.0,SW,21.9,28.8,N/A,,Clear,230,2012-11-19 09:53:00
3:53 AM,41.0,23.0,49,30.02,-9999.0,WSW,18.4,27.6,N/A,,Clear,240,2012-11-19 10:53:00
5:53 AM,42.1,25.0,51,30.00,-9999.0,SW,16.1,21.9,N/A,,Clear,230,2012-11-19 12:53:00
6:53 AM,42.1,26.1,53,30.01,-9999.0,WSW,15.0,21.9,N/A,,Clear,240,2012-11-19 13:53:00
7:53 AM,43.0,26.1,51,30.02,10.0,SW,18.4,25.3,N/A,,Clear,230,2012-11-19 14:53:00
8:53 AM,46.9,27.0,46,30.01,10.0,SW,21.9,40.3,N/A,,Clear,230,2012-11-19 15:53:00
9:53 AM,50.0,28.0,43,30.03,10.0,SW,26.5,42.6,N/A,,Clear,230,2012-11-19 16:53:00
10:53 AM,53.1,27.0,37,29.99,-9999.0,SSW,40.3,54.1,N/A,,Clear,210,2012-11-19 17:53:00
12:53 PM,54.0,26.1,34,29.97,10.0,SSW,39.1,49.5,N/A,,Clear,210,2012-11-19 19:53:00
1:53 PM,55.0,26.1,33,29.96,10.0,SW,36.8,48.3,N/A,,Clear,220,2012-11-19 20:53:00
2:53 PM,54.0,27.0,35,29.96,10.0,SW,27.6,46.0,N/A,,Clear,230,2012-11-19 21:53:00
3:53 PM,52.0,27.0,38,29.98,10.0,SW,36.8,44.9,N/A,,Clear,230,2012-11-19 22:53:00
4:53 PM,51.1,27.0,39,29.98,10.0,SW,31.1,48.3,N/A,,Clear,230,2012-11-19 23:53:00
5:53 PM,51.1,28.0,41,29.96,10.0,SSW,35.7,46.0,N/A,,Clear,210,2012-11-20 00:53:00
6:53 PM,51.1,28.0,41,29.97,10.0,SW,27.6,44.9,N/A,,Clear,230,2012-11-20 01:53:00
7:53 PM,51.1,28.9,43,29.97,10.0,SW,28.8,42.6,N/A,,Clear,230,2012-11-20 02:53:00
8:53 PM,51.1,28.9,43,29.93,10.0,WSW,31.1,41.4,N/A,,Partly Cloudy,250,2012-11-20 03:53:00
9:53 PM,51.1,30.0,44,29.90,10.0,WSW,32.2,43.7,N/A,,Clear,240,2012-11-20 04:53:00
10:53 PM,53.1,30.0,41,29.87,10.0,SW,27.6,56.4,N/A,,Clear,230,2012-11-20 05:53:00
11:53 PM,53.1,30.0,41,29.86,10.0,SW,39.1,55.2,N/A,,Clear,220,2012-11-20 06:53:00